Year,Month,Day,Hour,Minute,Value (Times are PST for temperature in C)
2013,06,29,00,00,17.40
2013,06,29,00,01,17.30
2013,06,29,00,02,17.20
2013,06,29,00,03,17.10
2013,06,29,00,04,17.00
2013,06,29,00,05,16.90
2013,06,29,00,06,16.80
2013,06,29,00,07,16.70
2013,06,29,00,08,16.70
2013,06,29,00,09,16.60
2013,06,29,00,10,16.60
2013,06,29,00,11,16.50
2013,06,29,00,12,16.40
2013,06,29,00,13,16.40
2013,06,29,00,14,16.40
2013,06,29,00,15,16.40
2013,06,29,00,16,16.40
2013,06,29,00,17,16.30
2013,06,29,00,18,16.30
2013,06,29,00,19,16.30
2013,06,29,00,20,16.30
2013,06,29,00,21,16.30
2013,06,29,00,22,16.30
2013,06,29,00,23,16.30
2013,06,29,00,24,16.40
2013,06,29,00,25,16.40
2013,06,29,00,26,16.40
2013,06,29,00,27,16.40
2013,06,29,00,28,16.40
2013,06,29,00,29,16.40
2013,06,29,00,30,16.40
2013,06,29,00,31,16.40
2013,06,29,00,32,16.40
2013,06,29,00,33,16.40
2013,06,29,00,34,16.40
2013,06,29,00,35,16.40
2013,06,29,00,36,16.40
2013,06,29,00,37,16.40
2013,06,29,00,38,16.40
2013,06,29,00,39,16.40
2013,06,29,00,40,16.40
2013,06,29,00,41,16.40
2013,06,29,00,42,16.50
2013,06,29,00,43,16.60
2013,06,29,00,44,16.60
2013,06,29,00,45,16.60
2013,06,29,00,46,16.60
2013,06,29,00,47,16.70
2013,06,29,00,48,16.70
2013,06,29,00,49,16.70
2013,06,29,00,50,16.70
2013,06,29,00,51,16.70
2013,06,29,00,52,16.70
2013,06,29,00,53,16.80
2013,06,29,00,54,16.80
2013,06,29,00,55,16.80
2013,06,29,00,56,16.80
2013,06,29,00,57,16.90
2013,06,29,00,58,16.90
2013,06,29,00,59,16.90
2013,06,29,01,00,16.90
2013,06,29,01,01,16.90
2013,06,29,01,02,16.90
2013,06,29,01,03,16.90
2013,06,29,01,04,17.00
2013,06,29,01,05,17.00
2013,06,29,01,06,16.90
2013,06,29,01,07,16.90
2013,06,29,01,08,16.90
2013,06,29,01,09,16.90
2013,06,29,01,10,16.90
2013,06,29,01,11,16.90
2013,06,29,01,12,16.90
2013,06,29,01,13,16.90
2013,06,29,01,14,16.90
2013,06,29,01,15,16.90
2013,06,29,01,16,16.90
2013,06,29,01,17,16.90
2013,06,29,01,18,16.90
2013,06,29,01,19,16.90
2013,06,29,01,20,16.90
2013,06,29,01,21,16.90
2013,06,29,01,22,16.90
2013,06,29,01,23,16.90
2013,06,29,01,24,16.80
2013,06,29,01,25,16.70
2013,06,29,01,26,16.70
2013,06,29,01,27,16.60
2013,06,29,01,28,16.50
2013,06,29,01,29,16.40
2013,06,29,01,30,16.40
2013,06,29,01,31,16.30
2013,06,29,01,32,16.20
2013,06,29,01,33,16.20
2013,06,29,01,34,16.20
2013,06,29,01,35,16.20
2013,06,29,01,36,16.20
2013,06,29,01,37,16.20
2013,06,29,01,38,16.20
2013,06,29,01,39,16.20
2013,06,29,01,40,16.20
2013,06,29,01,41,16.20
2013,06,29,01,42,16.20
2013,06,29,01,43,16.20
2013,06,29,01,44,16.30
2013,06,29,01,45,16.30
2013,06,29,01,46,16.30
2013,06,29,01,47,16.30
2013,06,29,01,48,16.40
2013,06,29,01,49,16.40
2013,06,29,01,50,16.40
2013,06,29,01,51,16.40
2013,06,29,01,52,16.40
2013,06,29,01,53,16.40
2013,06,29,01,54,16.40
2013,06,29,01,55,16.40
2013,06,29,01,56,16.40
2013,06,29,01,57,16.40
2013,06,29,01,58,16.40
2013,06,29,01,59,16.40
2013,06,29,02,00,16.40
2013,06,29,02,01,16.40
2013,06,29,02,02,16.40
2013,06,29,02,03,16.40
2013,06,29,02,04,16.40
2013,06,29,02,05,16.40
2013,06,29,02,06,16.40
2013,06,29,02,07,16.40
2013,06,29,02,08,16.40
2013,06,29,02,09,16.40
2013,06,29,02,10,16.40
2013,06,29,02,11,16.40
2013,06,29,02,12,16.40
2013,06,29,02,13,16.40
2013,06,29,02,14,16.40
2013,06,29,02,15,16.40
2013,06,29,02,16,16.40
2013,06,29,02,17,16.40
2013,06,29,02,18,16.40
2013,06,29,02,19,16.40
2013,06,29,02,20,16.40
2013,06,29,02,21,16.40
2013,06,29,02,22,16.40
2013,06,29,02,23,16.40
2013,06,29,02,24,16.40
2013,06,29,02,25,16.40
2013,06,29,02,26,16.40
2013,06,29,02,27,16.40
2013,06,29,02,28,16.40
2013,06,29,02,29,16.50
2013,06,29,02,30,16.60
2013,06,29,02,31,16.60
2013,06,29,02,32,16.60
2013,06,29,02,33,16.60
2013,06,29,02,34,16.60
2013,06,29,02,35,16.60
2013,06,29,02,36,16.60
2013,06,29,02,37,16.60
2013,06,29,02,38,16.60
2013,06,29,02,39,16.70
2013,06,29,02,40,16.70
2013,06,29,02,41,16.70
2013,06,29,02,42,16.70
2013,06,29,02,43,16.70
2013,06,29,02,44,16.70
2013,06,29,02,45,16.70
2013,06,29,02,46,16.70
2013,06,29,02,47,16.70
2013,06,29,02,48,16.70
2013,06,29,02,49,16.70
2013,06,29,02,50,16.70
2013,06,29,02,51,16.70
2013,06,29,02,52,16.70
2013,06,29,02,53,16.70
2013,06,29,02,54,16.70
2013,06,29,02,55,16.70
2013,06,29,02,56,16.70
2013,06,29,02,57,16.70
2013,06,29,02,58,16.70
2013,06,29,02,59,16.70
2013,06,29,03,00,16.70
2013,06,29,03,01,16.80
2013,06,29,03,02,16.80
2013,06,29,03,03,16.80
2013,06,29,03,04,16.80
2013,06,29,03,05,16.90
2013,06,29,03,06,16.90
2013,06,29,03,07,16.90
2013,06,29,03,08,16.90
2013,06,29,03,09,16.90
2013,06,29,03,10,16.90
2013,06,29,03,11,16.90
2013,06,29,03,12,16.90
2013,06,29,03,13,16.90
2013,06,29,03,14,16.90
2013,06,29,03,15,16.90
2013,06,29,03,16,16.90
2013,06,29,03,17,16.90
2013,06,29,03,18,16.90
2013,06,29,03,19,16.90
2013,06,29,03,20,16.90
2013,06,29,03,21,16.90
2013,06,29,03,22,16.90
2013,06,29,03,23,17.00
2013,06,29,03,24,17.00
2013,06,29,03,25,17.00
2013,06,29,03,26,17.00
2013,06,29,03,27,17.00
2013,06,29,03,28,17.00
2013,06,29,03,29,17.00
2013,06,29,03,30,17.00
2013,06,29,03,31,17.00
2013,06,29,03,32,17.00
2013,06,29,03,33,17.00
2013,06,29,03,34,17.00
2013,06,29,03,35,17.10
2013,06,29,03,36,17.10
2013,06,29,03,37,17.10
2013,06,29,03,38,17.10
2013,06,29,03,39,17.10
2013,06,29,03,40,17.10
2013,06,29,03,41,17.10
2013,06,29,03,42,17.10
2013,06,29,03,43,17.10
2013,06,29,03,44,17.10
2013,06,29,03,45,17.00
2013,06,29,03,46,17.00
2013,06,29,03,47,17.00
2013,06,29,03,48,17.00
2013,06,29,03,49,17.00
2013,06,29,03,50,17.00
2013,06,29,03,51,17.00
2013,06,29,03,52,17.00
2013,06,29,03,53,17.00
2013,06,29,03,54,17.00
2013,06,29,03,55,17.00
2013,06,29,03,56,17.10
2013,06,29,03,57,17.10
2013,06,29,03,58,17.10
2013,06,29,03,59,17.10
2013,06,29,04,00,17.10
2013,06,29,04,01,17.10
2013,06,29,04,02,17.10
2013,06,29,04,03,17.10
2013,06,29,04,04,17.10
2013,06,29,04,05,17.10
2013,06,29,04,06,17.10
2013,06,29,04,07,17.20
2013,06,29,04,08,17.20
2013,06,29,04,09,17.20
2013,06,29,04,10,17.20
2013,06,29,04,11,17.20
2013,06,29,04,12,17.20
2013,06,29,04,13,17.20
2013,06,29,04,14,17.10
2013,06,29,04,15,17.10
2013,06,29,04,16,17.20
2013,06,29,04,17,17.10
2013,06,29,04,18,17.10
2013,06,29,04,19,17.10
2013,06,29,04,20,17.10
2013,06,29,04,21,17.10
2013,06,29,04,22,17.00
2013,06,29,04,23,17.00
2013,06,29,04,24,16.90
2013,06,29,04,25,16.90
2013,06,29,04,26,16.80
2013,06,29,04,27,16.70
2013,06,29,04,28,16.70
2013,06,29,04,29,16.70
2013,06,29,04,30,16.70
2013,06,29,04,31,16.70
2013,06,29,04,32,16.70
2013,06,29,04,33,16.60
2013,06,29,04,34,16.60
2013,06,29,04,35,16.60
2013,06,29,04,36,16.60
2013,06,29,04,37,16.60
2013,06,29,04,38,16.60
2013,06,29,04,39,16.70
2013,06,29,04,40,16.70
2013,06,29,04,41,16.70
2013,06,29,04,42,16.70
2013,06,29,04,43,16.70
2013,06,29,04,44,16.70
2013,06,29,04,45,16.70
2013,06,29,04,46,16.70
2013,06,29,04,47,16.70
2013,06,29,04,48,16.70
2013,06,29,04,49,16.70
2013,06,29,04,50,16.70
2013,06,29,04,51,16.70
2013,06,29,04,52,16.70
2013,06,29,04,53,16.70
2013,06,29,04,54,16.70
2013,06,29,04,55,16.70
2013,06,29,04,56,16.70
2013,06,29,04,57,16.70
2013,06,29,04,58,16.70
2013,06,29,04,59,16.70
2013,06,29,05,00,16.70
2013,06,29,05,01,16.70
2013,06,29,05,02,16.70
2013,06,29,05,03,16.70
2013,06,29,05,04,16.70
2013,06,29,05,05,16.70
2013,06,29,05,06,16.70
2013,06,29,05,07,16.70
2013,06,29,05,08,16.70
2013,06,29,05,09,16.70
2013,06,29,05,10,16.70
2013,06,29,05,11,16.70
2013,06,29,05,12,16.70
2013,06,29,05,13,16.70
2013,06,29,05,14,16.70
2013,06,29,05,15,16.70
2013,06,29,05,16,16.70
2013,06,29,05,17,16.70
2013,06,29,05,18,16.70
2013,06,29,05,19,16.70
2013,06,29,05,20,16.70
2013,06,29,05,21,16.70
2013,06,29,05,22,16.70
2013,06,29,05,23,16.70
2013,06,29,05,24,16.70
2013,06,29,05,25,16.70
2013,06,29,05,26,16.70
2013,06,29,05,27,16.70
2013,06,29,05,28,16.70
2013,06,29,05,29,16.70
2013,06,29,05,30,16.70
2013,06,29,05,31,16.70
2013,06,29,05,32,16.70
2013,06,29,05,33,16.70
2013,06,29,05,34,16.70
2013,06,29,05,35,16.70
2013,06,29,05,36,16.70
2013,06,29,05,37,16.70
2013,06,29,05,38,16.70
2013,06,29,05,39,16.70
2013,06,29,05,40,16.70
2013,06,29,05,41,16.70
2013,06,29,05,42,16.70
2013,06,29,05,43,16.70
2013,06,29,05,44,16.70
2013,06,29,05,45,16.70
2013,06,29,05,46,16.70
2013,06,29,05,47,16.70
2013,06,29,05,48,16.70
2013,06,29,05,49,16.70
2013,06,29,05,50,16.70
2013,06,29,05,51,16.70
2013,06,29,05,52,16.70
2013,06,29,05,53,16.70
2013,06,29,05,54,16.70
2013,06,29,05,55,16.60
2013,06,29,05,56,16.50
2013,06,29,05,57,16.40
2013,06,29,05,58,16.30
2013,06,29,05,59,16.20
2013,06,29,06,00,16.10
2013,06,29,06,01,15.90
2013,06,29,06,02,15.80
2013,06,29,06,03,15.70
2013,06,29,06,04,15.60
2013,06,29,06,05,15.50
2013,06,29,06,06,15.50
2013,06,29,06,07,15.40
2013,06,29,06,08,15.30
2013,06,29,06,09,15.30
2013,06,29,06,10,15.30
2013,06,29,06,11,15.20
2013,06,29,06,12,15.20
2013,06,29,06,13,15.20
2013,06,29,06,14,15.10
2013,06,29,06,15,15.10
2013,06,29,06,16,15.10
2013,06,29,06,17,15.10
2013,06,29,06,18,15.10
2013,06,29,06,19,15.10
2013,06,29,06,20,15.10
2013,06,29,06,21,15.10
2013,06,29,06,22,15.20
2013,06,29,06,23,15.20
2013,06,29,06,24,15.20
2013,06,29,06,25,15.30
2013,06,29,06,26,15.30
2013,06,29,06,27,15.30
2013,06,29,06,28,15.40
2013,06,29,06,29,15.50
2013,06,29,06,30,15.50
2013,06,29,06,31,15.60
2013,06,29,06,32,15.70
2013,06,29,06,33,15.70
2013,06,29,06,34,15.80
2013,06,29,06,35,15.80
2013,06,29,06,36,15.90
2013,06,29,06,37,15.90
2013,06,29,06,38,16.00
2013,06,29,06,39,16.10
2013,06,29,06,40,16.10
2013,06,29,06,41,16.10
2013,06,29,06,42,16.10
2013,06,29,06,43,16.10
2013,06,29,06,44,16.10
2013,06,29,06,45,16.10
2013,06,29,06,46,16.10
2013,06,29,06,47,16.10
2013,06,29,06,48,16.20
2013,06,29,06,49,16.20
2013,06,29,06,50,16.40
2013,06,29,06,51,16.40
2013,06,29,06,52,16.40
2013,06,29,06,53,16.40
2013,06,29,06,54,16.50
2013,06,29,06,55,16.60
2013,06,29,06,56,16.70
2013,06,29,06,57,16.70
2013,06,29,06,58,16.70
2013,06,29,06,59,16.80
2013,06,29,07,00,16.90
2013,06,29,07,01,17.00
2013,06,29,07,02,16.90
2013,06,29,07,03,16.90
2013,06,29,07,04,16.90
2013,06,29,07,05,16.90
2013,06,29,07,06,16.90
2013,06,29,07,07,16.80
2013,06,29,07,08,16.80
2013,06,29,07,09,16.80
2013,06,29,07,10,16.80
2013,06,29,07,11,16.90
2013,06,29,07,12,16.90
2013,06,29,07,13,17.00
2013,06,29,07,14,17.00
2013,06,29,07,15,17.10
2013,06,29,07,16,17.20
2013,06,29,07,17,17.20
2013,06,29,07,18,17.20
2013,06,29,07,19,17.20
2013,06,29,07,20,17.20
2013,06,29,07,21,17.20
2013,06,29,07,22,17.20
2013,06,29,07,23,17.20
2013,06,29,07,24,17.20
2013,06,29,07,25,17.10
2013,06,29,07,26,17.10
2013,06,29,07,27,17.10
2013,06,29,07,28,17.10
2013,06,29,07,29,17.10
2013,06,29,07,30,17.20
2013,06,29,07,31,17.10
2013,06,29,07,32,17.10
2013,06,29,07,33,17.10
2013,06,29,07,34,17.10
2013,06,29,07,35,17.20
2013,06,29,07,36,17.20
2013,06,29,07,37,17.20
2013,06,29,07,38,17.20
2013,06,29,07,39,17.30
2013,06,29,07,40,17.30
2013,06,29,07,41,17.40
2013,06,29,07,42,17.40
2013,06,29,07,43,17.50
2013,06,29,07,44,17.50
2013,06,29,07,45,17.50
2013,06,29,07,46,17.50
2013,06,29,07,47,17.60
2013,06,29,07,48,17.60
2013,06,29,07,49,17.60
2013,06,29,07,50,17.70
2013,06,29,07,51,17.70
2013,06,29,07,52,17.80
2013,06,29,07,53,17.90
2013,06,29,07,54,17.90
2013,06,29,07,55,17.90
2013,06,29,07,56,18.10
2013,06,29,07,57,18.10
2013,06,29,07,58,18.20
2013,06,29,07,59,18.20
2013,06,29,08,00,18.30
2013,06,29,08,01,18.40
2013,06,29,08,02,18.50
2013,06,29,08,03,18.60
2013,06,29,08,04,18.70
2013,06,29,08,05,18.70
2013,06,29,08,06,18.70
2013,06,29,08,07,18.80
2013,06,29,08,08,18.80
2013,06,29,08,09,18.80
2013,06,29,08,10,18.80
2013,06,29,08,11,18.80
2013,06,29,08,12,18.80
2013,06,29,08,13,18.90
2013,06,29,08,14,18.90
2013,06,29,08,15,18.90
2013,06,29,08,16,19.00
2013,06,29,08,17,19.10
2013,06,29,08,18,19.10
2013,06,29,08,19,19.10
2013,06,29,08,20,19.20
2013,06,29,08,21,19.20
2013,06,29,08,22,19.30
2013,06,29,08,23,19.30
2013,06,29,08,24,19.40
2013,06,29,08,25,19.40
2013,06,29,08,26,19.50
2013,06,29,08,27,19.50
2013,06,29,08,28,19.60
2013,06,29,08,29,19.60
2013,06,29,08,30,19.70
2013,06,29,08,31,19.70
2013,06,29,08,32,19.80
2013,06,29,08,33,19.80
2013,06,29,08,34,19.80
2013,06,29,08,35,19.90
2013,06,29,08,36,19.90
2013,06,29,08,37,20.00
2013,06,29,08,38,20.10
2013,06,29,08,39,20.10
2013,06,29,08,40,20.20
2013,06,29,08,41,20.20
2013,06,29,08,42,20.20
2013,06,29,08,43,20.30
2013,06,29,08,44,20.30
2013,06,29,08,45,20.30
2013,06,29,08,46,20.30
2013,06,29,08,47,20.30
2013,06,29,08,48,20.30
2013,06,29,08,49,20.40
2013,06,29,08,50,20.40
2013,06,29,08,51,20.50
2013,06,29,08,52,20.50
2013,06,29,08,53,20.50
2013,06,29,08,54,20.60
2013,06,29,08,55,20.70
2013,06,29,08,56,20.70
2013,06,29,08,57,20.80
2013,06,29,08,58,20.90
2013,06,29,08,59,20.90
2013,06,29,09,00,20.90
2013,06,29,09,01,20.90
2013,06,29,09,02,20.90
2013,06,29,09,03,20.90
2013,06,29,09,04,21.00
2013,06,29,09,05,21.00
2013,06,29,09,06,21.00
2013,06,29,09,07,21.00
2013,06,29,09,08,21.00
2013,06,29,09,09,21.10
2013,06,29,09,10,21.10
2013,06,29,09,11,21.20
2013,06,29,09,12,21.30
2013,06,29,09,13,21.30
2013,06,29,09,14,21.30
2013,06,29,09,15,21.50
2013,06,29,09,16,21.60
2013,06,29,09,17,21.60
2013,06,29,09,18,21.50
2013,06,29,09,19,21.40
2013,06,29,09,20,21.30
2013,06,29,09,21,21.40
2013,06,29,09,22,21.50
2013,06,29,09,23,21.60
2013,06,29,09,24,21.60
2013,06,29,09,25,21.60
2013,06,29,09,26,21.60
2013,06,29,09,27,21.60
2013,06,29,09,28,21.60
2013,06,29,09,29,21.50
2013,06,29,09,30,21.50
2013,06,29,09,31,21.60
2013,06,29,09,32,21.70
2013,06,29,09,33,21.90
2013,06,29,09,34,22.10
2013,06,29,09,35,22.20
2013,06,29,09,36,22.30
2013,06,29,09,37,22.40
2013,06,29,09,38,22.40
2013,06,29,09,39,22.40
2013,06,29,09,40,22.50
2013,06,29,09,41,22.40
2013,06,29,09,42,22.30
2013,06,29,09,43,22.20
2013,06,29,09,44,22.10
2013,06,29,09,45,22.00
2013,06,29,09,46,22.00
2013,06,29,09,47,21.90
2013,06,29,09,48,21.60
2013,06,29,09,49,21.60
2013,06,29,09,50,21.40
2013,06,29,09,51,21.30
2013,06,29,09,52,21.10
2013,06,29,09,53,21.00
2013,06,29,09,54,21.00
2013,06,29,09,55,20.90
2013,06,29,09,56,21.00
2013,06,29,09,57,21.00
2013,06,29,09,58,21.00
2013,06,29,09,59,21.00
2013,06,29,10,00,21.10
2013,06,29,10,01,21.20
2013,06,29,10,02,21.10
2013,06,29,10,03,21.00
2013,06,29,10,04,21.00
2013,06,29,10,05,20.90
2013,06,29,10,06,20.90
2013,06,29,10,07,20.90
2013,06,29,10,08,21.00
2013,06,29,10,09,20.90
2013,06,29,10,10,20.80
2013,06,29,10,11,20.80
2013,06,29,10,12,20.80
2013,06,29,10,13,20.80
2013,06,29,10,14,20.90
2013,06,29,10,15,20.90
2013,06,29,10,16,20.90
2013,06,29,10,17,20.80
2013,06,29,10,18,20.70
2013,06,29,10,19,20.60
2013,06,29,10,20,20.60
2013,06,29,10,21,20.60
2013,06,29,10,22,20.60
2013,06,29,10,23,20.70
2013,06,29,10,24,20.70
2013,06,29,10,25,20.60
2013,06,29,10,26,20.60
2013,06,29,10,27,20.60
2013,06,29,10,28,20.60
2013,06,29,10,29,20.50
2013,06,29,10,30,20.60
2013,06,29,10,31,20.70
2013,06,29,10,32,20.70
2013,06,29,10,33,20.90
2013,06,29,10,34,20.90
2013,06,29,10,35,20.90
2013,06,29,10,36,20.90
2013,06,29,10,37,20.90
2013,06,29,10,38,20.90
2013,06,29,10,39,20.90
2013,06,29,10,40,20.90
2013,06,29,10,41,20.90
2013,06,29,10,42,21.00
2013,06,29,10,43,21.00
2013,06,29,10,44,21.10
2013,06,29,10,45,21.30
2013,06,29,10,46,21.40
2013,06,29,10,47,21.40
2013,06,29,10,48,21.40
2013,06,29,10,49,21.40
2013,06,29,10,50,21.40
2013,06,29,10,51,21.30
2013,06,29,10,52,21.30
2013,06,29,10,53,21.20
2013,06,29,10,54,21.20
2013,06,29,10,55,21.00
2013,06,29,10,56,21.00
2013,06,29,10,57,21.00
2013,06,29,10,58,21.00
2013,06,29,10,59,21.00
2013,06,29,11,00,21.00
2013,06,29,11,01,21.00
2013,06,29,11,02,21.10
2013,06,29,11,03,21.00
2013,06,29,11,04,21.00
2013,06,29,11,05,20.90
2013,06,29,11,06,20.90
2013,06,29,11,07,20.80
2013,06,29,11,08,21.00
2013,06,29,11,09,21.10
2013,06,29,11,10,21.20
2013,06,29,11,11,21.20
2013,06,29,11,12,21.20
2013,06,29,11,13,21.10
2013,06,29,11,14,21.00
2013,06,29,11,15,21.00
2013,06,29,11,16,20.90
2013,06,29,11,17,20.90
2013,06,29,11,18,20.80
2013,06,29,11,19,20.80
2013,06,29,11,20,20.90
2013,06,29,11,21,21.10
2013,06,29,11,22,21.20
2013,06,29,11,23,21.20
2013,06,29,11,24,21.20
2013,06,29,11,25,21.30
2013,06,29,11,26,21.40
2013,06,29,11,27,21.40
2013,06,29,11,28,21.30
2013,06,29,11,29,21.30
2013,06,29,11,30,21.30
2013,06,29,11,31,21.30
2013,06,29,11,32,21.30
2013,06,29,11,33,21.20
2013,06,29,11,34,21.10
2013,06,29,11,35,21.00
2013,06,29,11,36,21.00
2013,06,29,11,37,20.90
2013,06,29,11,38,21.00
2013,06,29,11,39,21.10
2013,06,29,11,40,21.30
2013,06,29,11,41,21.30
2013,06,29,11,42,21.40
2013,06,29,11,43,21.40
2013,06,29,11,44,21.40
2013,06,29,11,45,21.60
2013,06,29,11,46,21.60
2013,06,29,11,47,21.60
2013,06,29,11,48,21.70
2013,06,29,11,49,21.80
2013,06,29,11,50,21.80
2013,06,29,11,51,21.90
2013,06,29,11,52,21.90
2013,06,29,11,53,21.90
2013,06,29,11,54,21.80
2013,06,29,11,55,21.90
2013,06,29,11,56,21.90
2013,06,29,11,57,21.90
2013,06,29,11,58,21.90
2013,06,29,11,59,21.90
2013,06,29,12,00,22.00
2013,06,29,12,01,21.90
2013,06,29,12,02,21.70
2013,06,29,12,03,21.50
2013,06,29,12,04,21.30
2013,06,29,12,05,21.30
2013,06,29,12,06,21.30
2013,06,29,12,07,21.30
2013,06,29,12,08,21.30
2013,06,29,12,09,21.20
2013,06,29,12,10,21.20
2013,06,29,12,11,21.30
2013,06,29,12,12,21.30
2013,06,29,12,13,21.30
2013,06,29,12,14,21.30
2013,06,29,12,15,21.30
2013,06,29,12,16,21.30
2013,06,29,12,17,21.20
2013,06,29,12,18,21.10
2013,06,29,12,19,21.10
2013,06,29,12,20,21.10
2013,06,29,12,21,21.20
2013,06,29,12,22,21.30
2013,06,29,12,23,21.50
2013,06,29,12,24,21.60
2013,06,29,12,25,21.60
2013,06,29,12,26,21.60
2013,06,29,12,27,21.60
2013,06,29,12,28,21.40
2013,06,29,12,29,21.30
2013,06,29,12,30,21.30
2013,06,29,12,31,21.30
2013,06,29,12,32,21.30
2013,06,29,12,33,21.30
2013,06,29,12,34,21.30
2013,06,29,12,35,21.40
2013,06,29,12,36,21.40
2013,06,29,12,37,21.40
2013,06,29,12,38,21.40
2013,06,29,12,39,21.40
2013,06,29,12,40,21.50
2013,06,29,12,41,21.60
2013,06,29,12,42,21.60
2013,06,29,12,43,21.60
2013,06,29,12,44,21.60
2013,06,29,12,45,21.60
2013,06,29,12,46,21.60
2013,06,29,12,47,21.60
2013,06,29,12,48,21.60
2013,06,29,12,49,21.80
2013,06,29,12,50,21.80
2013,06,29,12,51,21.90
2013,06,29,12,52,22.00
2013,06,29,12,53,21.90
2013,06,29,12,54,21.80
2013,06,29,12,55,21.60
2013,06,29,12,56,21.60
2013,06,29,12,57,21.60
2013,06,29,12,58,21.60
2013,06,29,12,59,21.50
2013,06,29,13,00,21.50
2013,06,29,13,01,21.70
2013,06,29,13,02,21.70
2013,06,29,13,03,21.80
2013,06,29,13,04,21.80
2013,06,29,13,05,21.90
2013,06,29,13,06,21.90
2013,06,29,13,07,22.00
2013,06,29,13,08,22.00
2013,06,29,13,09,22.00
2013,06,29,13,10,22.20
2013,06,29,13,11,22.20
2013,06,29,13,12,22.30
2013,06,29,13,13,22.40
2013,06,29,13,14,22.40
2013,06,29,13,15,22.20
2013,06,29,13,16,22.10
2013,06,29,13,17,22.10
2013,06,29,13,18,22.00
2013,06,29,13,19,21.90
2013,06,29,13,20,22.00
2013,06,29,13,21,22.10
2013,06,29,13,22,22.20
2013,06,29,13,23,22.20
2013,06,29,13,24,22.30
2013,06,29,13,25,22.30
2013,06,29,13,26,22.30
2013,06,29,13,27,22.30
2013,06,29,13,28,22.20
2013,06,29,13,29,22.20
2013,06,29,13,30,22.30
2013,06,29,13,31,22.30
2013,06,29,13,32,22.30
2013,06,29,13,33,22.20
2013,06,29,13,34,22.10
2013,06,29,13,35,22.10
2013,06,29,13,36,22.20
2013,06,29,13,37,22.20
2013,06,29,13,38,22.20
2013,06,29,13,39,22.20
2013,06,29,13,40,22.20
2013,06,29,13,41,22.20
2013,06,29,13,42,22.10
2013,06,29,13,43,22.20
2013,06,29,13,44,22.30
2013,06,29,13,45,22.40
2013,06,29,13,46,22.40
2013,06,29,13,47,22.40
2013,06,29,13,48,22.40
2013,06,29,13,49,22.40
2013,06,29,13,50,22.40
2013,06,29,13,51,22.40
2013,06,29,13,52,22.40
2013,06,29,13,53,22.40
2013,06,29,13,54,22.40
2013,06,29,13,55,22.30
2013,06,29,13,56,22.30
2013,06,29,13,57,22.20
2013,06,29,13,58,22.10
2013,06,29,13,59,22.00
2013,06,29,14,00,22.00
2013,06,29,14,01,22.00
2013,06,29,14,02,22.00
2013,06,29,14,03,22.00
2013,06,29,14,04,22.00
2013,06,29,14,05,22.00
2013,06,29,14,06,22.00
2013,06,29,14,07,22.00
2013,06,29,14,08,22.00
2013,06,29,14,09,22.10
2013,06,29,14,10,22.10
2013,06,29,14,11,22.20
2013,06,29,14,12,22.30
2013,06,29,14,13,22.40
2013,06,29,14,14,22.40
2013,06,29,14,15,22.50
2013,06,29,14,16,22.60
2013,06,29,14,17,22.70
2013,06,29,14,18,22.70
2013,06,29,14,19,22.80
2013,06,29,14,20,22.90
2013,06,29,14,21,22.90
2013,06,29,14,22,23.00
2013,06,29,14,23,23.10
2013,06,29,14,24,23.10
2013,06,29,14,25,23.00
2013,06,29,14,26,22.90
2013,06,29,14,27,22.70
2013,06,29,14,28,22.60
2013,06,29,14,29,22.60
2013,06,29,14,30,22.70
2013,06,29,14,31,22.70
2013,06,29,14,32,22.80
2013,06,29,14,33,23.00
2013,06,29,14,34,23.10
2013,06,29,14,35,23.30
2013,06,29,14,36,23.40
2013,06,29,14,37,23.40
2013,06,29,14,38,23.50
2013,06,29,14,39,23.60
2013,06,29,14,40,23.60
2013,06,29,14,41,23.70
2013,06,29,14,42,23.70
2013,06,29,14,43,23.80
2013,06,29,14,44,23.90
2013,06,29,14,45,23.90
2013,06,29,14,46,23.90
2013,06,29,14,47,23.90
2013,06,29,14,48,23.90
2013,06,29,14,49,23.90
2013,06,29,14,50,24.00
2013,06,29,14,51,24.00
2013,06,29,14,52,23.80
2013,06,29,14,53,23.60
2013,06,29,14,54,23.50
2013,06,29,14,55,23.40
2013,06,29,14,56,23.50
2013,06,29,14,57,23.60
2013,06,29,14,58,23.60
2013,06,29,14,59,23.60
2013,06,29,15,00,23.60
2013,06,29,15,01,23.70
2013,06,29,15,02,23.70
2013,06,29,15,03,23.80
2013,06,29,15,04,23.90
2013,06,29,15,05,24.10
2013,06,29,15,06,24.10
2013,06,29,15,07,24.10
2013,06,29,15,08,24.30
2013,06,29,15,09,24.40
2013,06,29,15,10,24.60
2013,06,29,15,11,24.70
2013,06,29,15,12,24.80
2013,06,29,15,13,24.90
2013,06,29,15,14,24.90
2013,06,29,15,15,24.80
2013,06,29,15,16,24.70
2013,06,29,15,17,24.50
2013,06,29,15,18,24.60
2013,06,29,15,19,24.60
2013,06,29,15,20,24.80
2013,06,29,15,21,24.90
2013,06,29,15,22,25.00
2013,06,29,15,23,25.10
2013,06,29,15,24,25.10
2013,06,29,15,25,24.90
2013,06,29,15,26,24.90
2013,06,29,15,27,24.90
2013,06,29,15,28,24.90
2013,06,29,15,29,24.80
2013,06,29,15,30,24.80
2013,06,29,15,31,25.00
2013,06,29,15,32,25.00
2013,06,29,15,33,25.10
2013,06,29,15,34,25.20
2013,06,29,15,35,25.30
2013,06,29,15,36,25.40
2013,06,29,15,37,25.30
2013,06,29,15,38,25.20
2013,06,29,15,39,25.20
2013,06,29,15,40,25.40
2013,06,29,15,41,25.40
2013,06,29,15,42,25.50
2013,06,29,15,43,25.60
2013,06,29,15,44,25.70
2013,06,29,15,45,25.70
2013,06,29,15,46,25.70
2013,06,29,15,47,25.50
2013,06,29,15,48,25.30
2013,06,29,15,49,25.20
2013,06,29,15,50,25.20
2013,06,29,15,51,25.40
2013,06,29,15,52,25.60
2013,06,29,15,53,25.80
2013,06,29,15,54,26.00
2013,06,29,15,55,26.20
2013,06,29,15,56,26.30
2013,06,29,15,57,26.30
2013,06,29,15,58,26.40
2013,06,29,15,59,26.40
2013,06,29,16,00,26.50
2013,06,29,16,01,26.60
2013,06,29,16,02,26.60
2013,06,29,16,03,26.60
2013,06,29,16,04,26.60
2013,06,29,16,05,26.50
2013,06,29,16,06,26.40
2013,06,29,16,07,26.30
2013,06,29,16,08,26.30
2013,06,29,16,09,26.30
2013,06,29,16,10,26.30
2013,06,29,16,11,26.20
2013,06,29,16,12,26.10
2013,06,29,16,13,26.20
2013,06,29,16,14,26.20
2013,06,29,16,15,26.30
2013,06,29,16,16,26.30
2013,06,29,16,17,26.20
2013,06,29,16,18,26.20
2013,06,29,16,19,26.20
2013,06,29,16,20,26.20
2013,06,29,16,21,26.30
2013,06,29,16,22,26.40
2013,06,29,16,23,26.60
2013,06,29,16,24,26.70
2013,06,29,16,25,26.80
2013,06,29,16,26,27.00
2013,06,29,16,27,27.10
2013,06,29,16,28,27.20
2013,06,29,16,29,27.30
2013,06,29,16,30,27.30
2013,06,29,16,31,27.50
2013,06,29,16,32,27.60
2013,06,29,16,33,27.60
2013,06,29,16,34,27.50
2013,06,29,16,35,27.40
2013,06,29,16,36,27.30
2013,06,29,16,37,27.30
2013,06,29,16,38,27.30
2013,06,29,16,39,27.20
2013,06,29,16,40,27.20
2013,06,29,16,41,27.20
2013,06,29,16,42,27.30
2013,06,29,16,43,27.30
2013,06,29,16,44,27.30
2013,06,29,16,45,27.30
2013,06,29,16,46,27.20
2013,06,29,16,47,27.00
2013,06,29,16,48,26.90
2013,06,29,16,49,26.90
2013,06,29,16,50,27.00
2013,06,29,16,51,27.10
2013,06,29,16,52,27.10
2013,06,29,16,53,26.90
2013,06,29,16,54,27.00
2013,06,29,16,55,27.10
2013,06,29,16,56,27.20
2013,06,29,16,57,27.30
2013,06,29,16,58,27.30
2013,06,29,16,59,27.30
2013,06,29,17,00,27.50
2013,06,29,17,01,27.60
2013,06,29,17,02,27.60
2013,06,29,17,03,27.70
2013,06,29,17,04,27.70
2013,06,29,17,05,27.70
2013,06,29,17,06,27.70
2013,06,29,17,07,27.60
2013,06,29,17,08,27.60
2013,06,29,17,09,27.50
2013,06,29,17,10,27.60
2013,06,29,17,11,27.50
2013,06,29,17,12,27.40
2013,06,29,17,13,27.30
2013,06,29,17,14,27.30
2013,06,29,17,15,27.10
2013,06,29,17,16,27.10
2013,06,29,17,17,27.10
2013,06,29,17,18,27.10
2013,06,29,17,19,26.90